Weather Roundup
Issued by NWS

Home | Current Version | Previous Version | Graphics & Text | Print | Product List | Glossary Off
Versions: 1 2 3 4 5 6 7 8 9 10 11 12 13 14 15 16 17 18 19 20 21 22 23 24 25 26 27 28 29 30 31 32 33 34 35 36 37 38 39 40 41 42 43 44 45 46 47 48 49 50

342
NZUS93 KARX 211959
HRRWXR

CURRENT HOURLY OBSERVATIONS ACROSS
MUCH OF THE UPPER MISSISSIPPI VALLEY
NATIONAL WEATHER SERVICE LA CROSSE WI
300 PM CDT FRI JUL 21 2017


...SOUTHEAST MINNESOTA...


CITY           SKY/WX    TMP DP  RH WIND       PRES   REMARKS
ROCHESTER      CLOUDY    69  67  93 SE8       29.91F
ROCHESTER/MAYO MOCLDY    71  68  90 SE10      29.90F
WINONA         DRIZZLE   73  72  94 SE7       29.90F
AUSTIN         CLOUDY    72  66  83 SE12      29.91F
ALBERT LEA     CLOUDY    70  70 100 SE13G21   29.89S
DODGE CENTER   CLOUDY    72  64  78 SE10G17   29.90S
PRESTON        LGT RAIN  69  66  91 SE9       29.90F
OWATONNA       CLOUDY    77  68  73 SE17      29.87F
FARIBAULT      CLOUDY    79  72  78 SE8       29.87S
$$

...ELSEWHERE IN MINNESOTA...


CITY           SKY/WX    TMP DP  RH WIND       PRES   REMARKS
MINNEAPOLIS    PTSUNNY   80  68  66 S10       29.84F
INTNL FALLS    CLOUDY    76  61  59 E9        29.86F
DULUTH         SUNNY     76  66  71 SE12      29.89F
RED WING       PTSUNNY   77  68  73 SE8       29.86F
REDWOOD FALLS  MOSUNNY   83  71  67 S17       29.85S
MANKATO        PTSUNNY   77  70  79 SE14      29.87S
WORTHINGTON    CLOUDY    79  72  79 SE12      29.88S
FAIRMONT       CLOUDY    77  70  79 SE16      29.88R
$$

...SOUTHWEST WISCONSIN...


CITY           SKY/WX    TMP DP  RH WIND       PRES   REMARKS
LA CROSSE      LGT RAIN  74  71  91 SE6       29.91F
PRAIRIE DU CHI PTSUNNY   71  69  96 E5        29.91S
BOSCOBEL       LGT RAIN  74  71  91 VRB3      29.92S
LONE ROCK      NOT AVBL
PLATTEVILLE    CLOUDY    72  72 100 SE9       29.93F
FORT MC COY    LGT RAIN  69  68  94 SE5       29.96F
MAUSTON-NEW LI DRIZZLE   73  71  95 E3        29.94F
VIROQUA        CLOUDY    71  71 100 SE5       29.95S
WIS DELLS      LGT RAIN  73  70  93 SE5       29.95F
$$

...ELSEWHERE IN WISCONSIN...


CITY           SKY/WX    TMP DP  RH WIND       PRES   REMARKS
MILWAUKEE      CLOUDY    81  71  71 SE9       29.96F
MADISON        LGT RAIN  75  73  93 E9        29.92F FOG
GREEN BAY      CLOUDY    78  70  76 SW5       29.96R
EAU CLAIRE     NOT AVBL
BLACK RVR FLS  LGT RAIN  73  73 100 CALM      29.93F
MEDFORD        CLOUDY    75  67  76 S10       29.95F
WAUSAU         CLOUDY    79  66  64 S7        29.94F
WIS RAPIDS     LGT RAIN  75  70  84 SW6       29.96F
MARSHFIELD     LGT RAIN  74  68  81 S8        29.94F
RICE LAKE      CLOUDY    75  67  76 S10       29.91F
$$

...NORTHEAST IOWA...


CITY           SKY/WX    TMP DP  RH WIND       PRES   REMARKS
WATERLOO       CLOUDY    76  70  82 E10       29.88F
DUBUQUE        CLOUDY    76  69  79 E12       29.91F
DECORAH        CLOUDY    68  68 100 SE9       29.91F
MASON CITY     CLOUDY    71  67  87 SE17G29   29.86F
CHARLES CITY   HVY RAIN  70  70 100 SE13      29.90F
OELWEIN        CLOUDY    73  72  94 NE6       29.92R
$$

...ELSEWHERE IN IOWA...


CITY           SKY/WX    TMP DP  RH WIND       PRES   REMARKS
DES MOINES     MOSUNNY  100  71  39 S16       29.78F HX 108
IOWA CITY      PTSUNNY   91  80  70 SE10      29.86F HX 109
FORT DODGE     CLOUDY    73  70  88 E16       29.84F
MARSHALLTOWN   MOSUNNY   82  75  79 E13       29.85F
CEDAR RAPIDS   SUNNY     84  78  82 E14       29.85F HX  95
$$

...NORTHERN ILLINOIS...


CITY           SKY/WX    TMP DP  RH WIND       PRES   REMARKS
CHICAGO-OHARE  CLOUDY    87  70  56 VRB6      29.93F HX  92
CHICAGO-MIDWAY PTSUNNY   89  69  51 S9        29.94F HX  93
MOLINE         SUNNY     91  79  67 SE13G18   29.86F HX 107
ROCKFORD       CLOUDY    83  74  74 VRB3      29.97R THUNDER
PEORIA         SUNNY     93  79  63 S9        29.91F HX 110
$$

NOTE: "FAIR" INDICATES FEW OR NO CLOUDS BELOW 12,000 FEET WITH NO
SIGNIFICANT WEATHER AND/OR OBSTRUCTIONS TO VISIBILITY. WIND
SPEEDS ARE IN MILES-PER-HOUR.




USA.gov is the U.S. government's official web portal to all federal, state and local government web resources and services.